This is the latest recevied weather packets stored in our database for station/object N9CQL. If no packets are shown the sender has not sent any weather packets the latest 10 day(s).
| Time | Temp. | Humidity | Pressure | Rain* | Wind** | Luminosity | Snow |
|---|---|---|---|---|---|---|---|
| 1777054118 | 21.67° C | 68% | 1004.8 hPa | 0 mm | - | 231 W/m² | - |
| 1777053813 | 22.22° C | 67% | 1004.8 hPa | 0 mm | - | 276 W/m² | - |
| 1777053513 | 22.22° C | 66% | 1004.9 hPa | 0 mm | - | 232 W/m² | - |
| 1777053209 | 22.22° C | 66% | 1005 hPa | 0 mm | - | 288 W/m² | - |
| 1777052906 | 22.22° C | 65% | 1005.1 hPa | 0 mm | - | 267 W/m² | - |
| 1777052601 | 22.22° C | 64% | 1005.2 hPa | 0 mm | - | 260 W/m² | - |
| 1777052297 | 22.22° C | 63% | 1005.1 hPa | 0 mm | - | 232 W/m² | - |
| 1777051993 | 22.22° C | 62% | 1005 hPa | 0 mm | - | 216 W/m² | - |
| 1777051690 | 22.22° C | 63% | 1004.8 hPa | 0 mm | - | 223 W/m² | - |
| 1777051386 | 22.78° C | 62% | 1004.9 hPa | 0 mm | - | 218 W/m² | - |
| 1777051082 | 22.78° C | 62% | 1004.9 hPa | 0 mm | - | 224 W/m² | - |
| 1777050777 | 22.78° C | 60% | 1005.2 hPa | 0 mm | - | 232 W/m² | - |
| 1777050473 | 22.78° C | 60% | 1005.1 hPa | 0 mm | - | 211 W/m² | - |
| 1777050167 | 22.78° C | 60% | 1004.9 hPa | 0 mm | - | 250 W/m² | - |
| 1777049862 | 22.78° C | 59% | 1005.2 hPa | 0 mm | - | 259 W/m² | - |
| 1777049558 | 22.78° C | 61% | 1004.9 hPa | 0 mm | - | 278 W/m² | - |
| 1777049256 | 22.78° C | 60% | 1005.2 hPa | 0 mm | - | 257 W/m² | - |
| 1777048953 | 22.78° C | 61% | 1005.1 hPa | 0 mm | - | 262 W/m² | - |
| 1777048652 | 22.22° C | 61% | 1005.1 hPa | 0 mm | - | 269 W/m² | - |
| 1777048348 | 22.78° C | 61% | 1004.8 hPa | 0 mm | - | 280 W/m² | - |
| 1777048047 | 22.22° C | 61% | 1005 hPa | 0 mm | - | 293 W/m² | - |
| 1777047743 | 22.22° C | 63% | 1004.8 hPa | 0 mm | - | 293 W/m² | - |
| 1777047440 | 21.67° C | 64% | 1004.8 hPa | 0 mm | - | 302 W/m² | - |
| 1777047135 | 21.67° C | 66% | 1004.6 hPa | 0 mm | - | 307 W/m² | - |
| 1777046832 | 21.67° C | 66% | 1004.7 hPa | 0 mm | - | 413 W/m² | - |
* Rain latest hour (hover to see other rain measurements)
** Current wind speed in m/s (hover to see current wind gust speed)